Hourly Weather Otreba

Today, 23 July, Friday

Time Temperature Precipitation Wind Pressure Humidity
00:00 +18°C° 0 mm 1 mps 754 mmHg 83%
01:00 +18°C° 0 mm 1 mps 754 mmHg 85%
02:00 +16°C° 0 mm 1 mps 754 mmHg 87%
03:00 +16°C° 0 mm 1 mps 754 mmHg 88%
04:00 +15°C° 0 mm 1 mps 754 mmHg 90%
05:00 +16°C° 0 mm 1 mps 754 mmHg 86%
06:00 +18°C° 0 mm 1 mps 754 mmHg 82%
07:00 +19°C° 0 mm 1 mps 754 mmHg 78%
08:00 +20°C° 0 mm 2 mps 754 mmHg 71%
09:00 +21°C° 0 mm 2 mps 754 mmHg 64%
10:00 +24°C° 0 mm 2 mps 754 mmHg 57%
11:00 +24°C° 0 mm 2 mps 753 mmHg 54%
12:00 +25°C° 0 mm 3 mps 753 mmHg 50%
13:00 +26°C° 0 mm 3 mps 753 mmHg 46%
14:00 +26°C° 0 mm 3 mps 753 mmHg 48%
15:00 +26°C° 0 mm 3 mps 752 mmHg 49%
16:00 +25°C° 0 mm 3 mps 752 mmHg 51%
17:00 +24°C° 0 mm 3 mps 752 mmHg 58%
18:00 +23°C° 0 mm 2 mps 752 mmHg 65%
19:00 +21°C° 0 mm 2 mps 752 mmHg 71%
20:00 +20°C° 0 mm 2 mps 753 mmHg 74%
21:00 +19°C° 0 mm 2 mps 753 mmHg 76%
22:00 +19°C° 0 mm 1 mps 753 mmHg 79%
23:00 +18°C° 0 mm 1 mps 753 mmHg 80%

Tomorrow, 24 July, Saturday

Time Temperature Precipitation Wind Pressure Humidity
00:00 +18°C° 0 mm 1 mps 753 mmHg 81%
01:00 +18°C° 0 mm 1 mps 753 mmHg 82%
02:00 +16°C° 0 mm 1 mps 753 mmHg 83%
03:00 +16°C° 0 mm 2 mps 753 mmHg 85%
04:00 +15°C° 0 mm 2 mps 753 mmHg 86%
05:00 +17°C° 0 mm 2 mps 753 mmHg 82%
06:00 +18°C° 0 mm 2 mps 753 mmHg 78%
07:00 +20°C° 0 mm 2 mps 753 mmHg 73%
08:00 +22°C° 0 mm 1 mps 753 mmHg 68%
09:00 +24°C° 0 mm 1 mps 753 mmHg 62%
10:00 +25°C° 0 mm 1 mps 753 mmHg 56%
11:00 +26°C° 0 mm 1 mps 753 mmHg 52%
12:00 +27°C° 0 mm 1 mps 753 mmHg 48%
13:00 +28°C° 0 mm 1 mps 753 mmHg 44%
14:00 +27°C° 0 mm 1 mps 753 mmHg 50%
15:00 +26°C° 0 mm 1 mps 753 mmHg 56%
16:00 +25°C° 0 mm 1 mps 753 mmHg 62%
17:00 +24°C° 0 mm 1 mps 753 mmHg 63%
18:00 +23°C° 0 mm 1 mps 753 mmHg 65%
19:00 +23°C° 0 mm 1 mps 752 mmHg 67%
20:00 +22°C° 0 mm 1 mps 753 mmHg 67%
21:00 +21°C° 0 mm 2 mps 753 mmHg 67%
22:00 +21°C° 0 mm 2 mps 753 mmHg 67%
23:00 +20°C° 0 mm 2 mps 753 mmHg 69%

Day after tomorrow, 25 July, Sunday

Time Temperature Precipitation Wind Pressure Humidity
00:00 +20°C° 0 mm 2 mps 753 mmHg 70%
01:00 +19°C° 0 mm 2 mps 753 mmHg 72%
02:00 +19°C° 0 mm 2 mps 753 mmHg 72%
03:00 +19°C° 0 mm 2 mps 752 mmHg 72%
04:00 +19°C° 0 mm 2 mps 752 mmHg 72%
05:00 +20°C° 0 mm 2 mps 752 mmHg 71%
06:00 +20°C° 0 mm 3 mps 752 mmHg 70%
07:00 +21°C° 0 mm 3 mps 753 mmHg 70%
08:00 +23°C° 0 mm 4 mps 753 mmHg 63%
09:00 +25°C° 0 mm 4 mps 753 mmHg 56%
10:00 +27°C° 0 mm 5 mps 752 mmHg 49%
11:00 +28°C° 0 mm 5 mps 752 mmHg 47%
12:00 +29°C° 0 mm 5 mps 752 mmHg 45%
13:00 +29°C° 0 mm 5 mps 752 mmHg 43%
14:00 +29°C° 0 mm 4 mps 752 mmHg 46%
15:00 +29°C° 0 mm 4 mps 752 mmHg 48%
16:00 +29°C° 0 mm 4 mps 752 mmHg 50%
17:00 +27°C° 0.2 mm 3 mps 752 mmHg 57%
18:00 +25°C° 0.2 mm 3 mps 752 mmHg 64%
19:00 +24°C° 0.2 mm 3 mps 752 mmHg 71%
20:00 +23°C° 0.9 mm 2 mps 752 mmHg 77%
21:00 +21°C° 0.9 mm 2 mps 752 mmHg 82%
22:00 +21°C° 0.9 mm 1 mps 752 mmHg 88%
23:00 +20°C° 0.2 mm 2 mps 752 mmHg 88%

26 July, Monday

Time Temperature Precipitation Wind Pressure Humidity
00:00 +20°C° 0.2 mm 2 mps 752 mmHg 89%
01:00 +20°C° 0.2 mm 2 mps 752 mmHg 89%
02:00 +20°C° 0 mm 3 mps 751 mmHg 89%
03:00 +20°C° 0 mm 3 mps 751 mmHg 88%
04:00 +20°C° 0 mm 4 mps 751 mmHg 87%
05:00 +20°C° 0 mm 4 mps 751 mmHg 84%
06:00 +21°C° 0 mm 5 mps 750 mmHg 81%
07:00 +22°C° 0 mm 5 mps 750 mmHg 77%
08:00 +24°C° 0 mm 6 mps 750 mmHg 70%
09:00 +26°C° 0 mm 6 mps 750 mmHg 62%
10:00 +28°C° 0 mm 7 mps 750 mmHg 55%
11:00 +29°C° 0 mm 6 mps 750 mmHg 54%
12:00 +29°C° 0 mm 6 mps 749 mmHg 52%
13:00 +30°C° 0 mm 5 mps 749 mmHg 51%
14:00 +30°C° 0 mm 5 mps 749 mmHg 53%
15:00 +29°C° 0 mm 4 mps 749 mmHg 55%
16:00 +29°C° 0 mm 3 mps 749 mmHg 57%
17:00 +28°C° 0.1 mm 3 mps 749 mmHg 62%
18:00 +27°C° 0.1 mm 2 mps 749 mmHg 68%
19:00 +26°C° 0.1 mm 2 mps 749 mmHg 73%
20:00 +25°C° 0 mm 2 mps 749 mmHg 76%
21:00 +24°C° 0 mm 2 mps 749 mmHg 79%
22:00 +23°C° 0 mm 2 mps 749 mmHg 82%
23:00 +21°C° 0 mm 2 mps 749 mmHg 84%

27 July, Tuesday

Time Temperature Precipitation Wind Pressure Humidity
00:00 +22°C° 0 mm 1 mps 749 mmHg 85%
01:00 +21°C° 0 mm 1 mps 749 mmHg 87%
02:00 +21°C° 0 mm 1 mps 749 mmHg 88%
03:00 +21°C° 0 mm 1 mps 749 mmHg 89%
04:00 +20°C° 0 mm 1 mps 749 mmHg 89%
05:00 +21°C° 0.3 mm 1 mps 750 mmHg 87%
06:00 +21°C° 0.3 mm 2 mps 750 mmHg 85%
07:00 +23°C° 0.3 mm 2 mps 750 mmHg 82%
08:00 +24°C° 0 mm 2 mps 750 mmHg 79%
09:00 +24°C° 0 mm 2 mps 750 mmHg 76%
10:00 +25°C° 0 mm 2 mps 751 mmHg 73%
11:00 +26°C° 0 mm 2 mps 751 mmHg 68%
12:00 +26°C° 0 mm 3 mps 751 mmHg 63%
13:00 +27°C° 0 mm 3 mps 751 mmHg 59%
14:00 +28°C° 0 mm 3 mps 751 mmHg 56%
15:00 +28°C° 0 mm 3 mps 751 mmHg 52%
16:00 +29°C° 0 mm 3 mps 750 mmHg 49%
17:00 +27°C° 0.1 mm 3 mps 750 mmHg 57%
18:00 +26°C° 0.1 mm 2 mps 750 mmHg 64%
19:00 +24°C° 0.1 mm 2 mps 750 mmHg 72%
20:00 +23°C° 0 mm 1 mps 751 mmHg 75%
21:00 +22°C° 0 mm 1 mps 751 mmHg 78%
22:00 +21°C° 0 mm 1 mps 751 mmHg 81%
23:00 +21°C° 0 mm 1 mps 751 mmHg 81%

28 July, Wednesday

Time Temperature Precipitation Wind Pressure Humidity
00:00 +20°C° 0 mm 1 mps 751 mmHg 81%
01:00 +20°C° 0 mm 1 mps 751 mmHg 81%
02:00 +20°C° 0 mm 1 mps 751 mmHg 81%
03:00 +19°C° 0 mm 2 mps 751 mmHg 81%
04:00 +18°C° 0 mm 2 mps 750 mmHg 82%
05:00 +19°C° 0 mm 2 mps 751 mmHg 80%
06:00 +20°C° 0 mm 2 mps 751 mmHg 78%
07:00 +21°C° 0 mm 2 mps 751 mmHg 76%
08:00 +21°C° 0.1 mm 3 mps 751 mmHg 78%
09:00 +21°C° 0.1 mm 3 mps 751 mmHg 79%
10:00 +20°C° 0.1 mm 3 mps 751 mmHg 80%
11:00 +22°C° 0 mm 4 mps 751 mmHg 71%
12:00 +25°C° 0 mm 4 mps 751 mmHg 62%
13:00 +27°C° 0 mm 5 mps 751 mmHg 53%
14:00 +27°C° 0 mm 4 mps 751 mmHg 53%
15:00 +26°C° 0 mm 4 mps 751 mmHg 54%
16:00 +26°C° 0 mm 3 mps 751 mmHg 54%
17:00 +25°C° 0 mm 3 mps 751 mmHg 59%
18:00 +25°C° 0 mm 2 mps 751 mmHg 63%
19:00 +24°C° 0 mm 2 mps 751 mmHg 67%
20:00 +23°C° 0 mm 2 mps 751 mmHg 67%
21:00 +23°C° 0 mm 2 mps 751 mmHg 67%
22:00 +22°C° 0 mm 1 mps 752 mmHg 66%
23:00 +21°C° 0 mm 2 mps 752 mmHg 65%
Show more